Regional Weather Roundup
Issued by NWS

Home | Current Version | Previous Version | Graphics & Text | Print | Product List | Glossary On
Versions: 1 2 3 4 5 6 7 8 9 10 11 12 13 14 15 16 17 18 19 20 21 22 23 24 25 26 27 28 29 30 31 32 33 34 35 36 37 38 39 40 41 42 43 44 45 46 47 48 49 50
000
ASUS43 KOAX 291802
RWRNE

WEATHER ROUNDUP FOR NEBRASKA
NATIONAL WEATHER SERVICE OMAHA NE
100 PM CDT SAT APR 29 2017

NOTES: SATELLITE DATA IS BEING USED TO AUGMENT CLOUD COVER ABOVE
       12000 FEET.
       "FAIR" INDICATES FEW OR NO CLOUDS BELOW 12,000 FEET WITH NO
       SIGNIFICANT WEATHER AND/OR OBSTRUCTIONS TO VISIBILITY.

  * THESE STATIONS DO NOT REPORT WEATHER SUCH AS RAIN...SNOW OR FOG.

NEZ001>004-019>022-054>056-291900-
NEBRASKA PANHANDLE

CITY           SKY/WX    TMP DP  RH WIND       PRES   REMARKS
SCOTTSBLUFF    SUNNY     42  24  49 N14       30.26S
6HR MIN TEMP:  32; 6HR MAX TEMP:  42;

ALLIANCE       SUNNY     44  20  38 NE16      30.22S
6HR MIN TEMP:  31; 6HR MAX TEMP:  44;

CHADRON        SUNNY     46  21  37 NE6       30.27R
6HR MIN TEMP:  30; 6HR MAX TEMP:  47;

KIMBALL        CLOUDY    37  22  54 NE12      30.20F WCI  29
SIDNEY         CLOUDY    38  24  57 N17G28    30.19F WCI  28
6HR MIN TEMP:  33; 6HR MAX TEMP:  39; 6HR PCP: TRACE;

$$

NEZ057>060-069>072-079>082-291900-
SOUTHWEST NEBRASKA

CITY           SKY/WX    TMP DP  RH WIND       PRES   REMARKS
NORTH PLATTE   CLOUDY    45  24  43 NE20      30.15S
6HR MIN TEMP:  38; 6HR MAX TEMP:  46;

IMPERIAL       CLOUDY    41  26  55 N22       30.15S
6HR MIN TEMP:  37; 6HR MAX TEMP:  42;

LEXINGTON      CLOUDY    42  30  61 NE22      30.11S
MCCOOK         CLOUDY    41  30  65 N23G30    30.11R
6HR MIN TEMP:  35; 6HR MAX TEMP:  42; 6HR PCP:  0.05;

$$

NEZ005>010-023>029-035>040-094-291900-
NORTH CENTRAL NEBRASKA

CITY           SKY/WX    TMP DP  RH WIND       PRES   REMARKS
VALENTINE      SUNNY     52  11  19 N18G24    30.22S
6HR MIN TEMP:  39; 6HR MAX TEMP:  52;

AINSWORTH      CLOUDY    47  22  38 NE14G22   30.22R
BROKEN BOW     CLOUDY    44  27  51 NE21G29   30.13R
6HR MIN TEMP:  38; 6HR MAX TEMP:  45;

O`NEILL        CLOUDY    49  23  36 NE17G25   30.18F
ORD            CLOUDY    45  28  51 N21       30.15R
6HR MIN TEMP:  38; 6HR MAX TEMP:  45;

THEDFORD       CLOUDY    47  22  37 NE14G24   30.20R
$$

NEZ041-046>049-061>064-073>077-083>087-291900-
SOUTH CENTRAL NEBRASKA

CITY           SKY/WX    TMP DP  RH WIND       PRES   REMARKS
GRAND ISLAND   LGT RAIN  43  34  70 NE21G28   30.10S
6HR MIN TEMP:  39; 6HR MAX TEMP:  43; 6HR PCP: TRACE;

AURORA         CLOUDY    43  35  74 NE24      30.08S
HASTINGS       CLOUDY    42  34  73 NE21G26   30.07S
6HR MIN TEMP:  39; 6HR MAX TEMP:  42; 6HR PCP:  0.01;

HEBRON         RAIN      42  40  91 NE15G25   30.00F
HOLDREGE       DRIZZLE   40  32  73 N23       30.06F WCI  30
KEARNEY *      CLOUDY    43  28  56 N23G29    30.09F
YORK           CLOUDY    43  37  81 NE20G29   30.08R
$$

NEZ011>018-030>034-042>045-291900-
NORTHEAST NEBRASKA

CITY           SKY/WX    TMP DP  RH WIND       PRES   REMARKS
NORFOLK        CLOUDY    47  28  47 NE17G25   30.14R
6HR MIN TEMP:  39; 6HR MAX TEMP:  49;

ALBION         CLOUDY    47  29  49 NE20G29   30.15S
BLAIR          CLOUDY    46  37  71 NE20G29   30.10R
FREMONT        CLOUDY    45  34  65 NE18G25   30.12R
TEKAMAH        CLOUDY    46  34  62 NE21      30.14R
6HR MIN TEMP:  41; 6HR MAX TEMP:  47;

WAYNE          CLOUDY    49  32  51 NE20G28   30.16R
$$

NEZ050>053-065>068-078-088>093-291900-
SOUTHEAST NEBRASKA

CITY           SKY/WX    TMP DP  RH WIND       PRES   REMARKS
LINCOLN        CLOUDY    46  37  71 NE17G25   30.10R
6HR MIN TEMP:  41; 6HR MAX TEMP:  46; 6HR PCP:  0.05;

OMAHA EPPLEY   LGT RAIN  45  36  70 NE21G31   30.12R
6HR MIN TEMP:  43; 6HR MAX TEMP:  46; 6HR PCP: TRACE;

BEATRICE       CLOUDY    44  41  88 NE15G26   30.01S
FALLS CITY     LGT RAIN  46  43  89 NE13G24   29.95R
6HR MIN TEMP:  44; 6HR MAX TEMP:  46; 6HR PCP:  0.11;

NEBRASKA CITY  LGT RAIN  43  43  99 NE17      30.03R
$$

NEZ044-045-051>053-067-291900-
OMAHA AREA

CITY           SKY/WX    TMP DP  RH WIND       PRES   REMARKS
OMAHA EPPLEY   LGT RAIN  45  36  70 NE21G31   30.12R
6HR MIN TEMP:  43; 6HR MAX TEMP:  46; 6HR PCP: TRACE;

BLAIR          CLOUDY    46  37  71 NE20G29   30.10R
FREMONT        CLOUDY    45  34  65 NE18G25   30.12R
MILLARD        DRIZZLE   47  38  72 NE8G22    30.10R
OFFUTT AFB     CLOUDY    45  38  77 NE16G28   30.08R
WAHOO          CLOUDY    45  36  70 NE18      30.12R
$$



USA.gov is the U.S. government's official web portal to all federal, state and local government web resources and services.